Kosmos-2509

operational
NORAD ID: 40922 Int'l Des: 2015-050 Owner: VVKOV Country: RU
LEOCIRCULARPOLAR

关于 Kosmos-2509

正在加载描述...

实时位置

正在加载3D地球...

即将过境

高度历史

Altitude vs Time

uPlot chart will show altitude changes over time

两行轨道根数

1 40922U 15050C 26062.67577488 -.00000113 00000-0 -88840-3 0 9994
2 40922 82.4915 144.0030 0013263 270.1790 89.7769 12.42929575473771
Epoch: Mar 3, 2026 • Age: 21 hours

当前状态

高度 1497.5 km
速度 7.12 km/s
星下点 7.13°N, 153.86°W
发射日期 Sep 23, 2015
运行时间 10.4 years
类型 other

技术详情

分类 Payload
质量 280.00 kg
干质量 280.00 kg
总质量 280.00 kg
长度 1.60 m
直径 0.80 m
跨度 7.00 m
形状 Cyl + Ant
制造商 RESH
平台类型 Strela-3M
阶段状态 In Orbit
所有者/国家 VVKOV/RU

大型星座

Loading constellations...